Location: ?????????
(41.2393°N, 22.9479°E)
Time: 21:47:06
(UTC+00:00)

Cosmos 1536 Rocket - Pass Details

Date: 17 November 2025
Orbit: 599 x 625 km, 82.5° (Epoch: 11 December)

Event Time Altitude Azimuth Distance (km) Brightness Sun altitude
Rises 16:52:50 0° 351° (N) 2,912 7.0 -19.8°
Reaches altitude 10° 16:55:05 10° 352° (N) 1,998 6.2 -20.2°
Maximum altitude 16:59:31 87° 260° (W) 625 3.5 -21.0°
Drops below altitude 10° 17:03:53 10° 175° (S) 1,968 6.1 -21.8°
Sets 17:06:05 0° 175° (S) 2,863 7.0 -22.2°
